Regional Weather Roundup
Issued by NWS

Home | Current Version | Previous Version | Text Only | Print | Product List | Glossary Off
Versions: 1 2 3 4 5 6 7 8 9 10 11 12 13 14 15 16 17 18 19 20 21 22 23 24 25 26 27 28 29 30 31 32 33 34 35 36 37 38 39 40 41 42 43 44 45 46 47 48 49 50

000
ASUS45 KABQ 012110
RWRNM
WEATHER ROUNDUP FOR NEW MEXICO
NATIONAL WEATHER SERVICE ALBUQUERQUE NM
200 PM MST SUN FEB 01 2015

NOTE: "FAIR" MEANS FEW OR NO CLOUDS BELOW 12,000 FEET AGL WITH NO
       SIGNIFICANT WEATHER OR OBSTRUCTIONS TO VISION.

      THIS PRODUCT IS RELEASED AS TWO VERSIONS.  ONE VERSION NEAR
      THE TOP OF THE HOUR CONTAINING PRELIMINARY DATA FROM ALBUQUERQUE
      AND OTHER STATIONS.  A FINAL VERSION WITH ADDITIONAL DATA IS
      ISSUED ABOUT 10 MINUTES AFTER THE HOUR.

NMZ501-503-504-510>518-012200-
NORTHWEST PLATEAU/NORTHCENTRAL MOUNTAINS

CITY           SKY/WX    TMP DP  RH WIND       PRES   REMARKS
FARMINGTON     MOSUNNY   44  33  65 VRB3      30.12F
LOS ALAMOS     SUNNY     37  23  58 SE7       30.10F WCI  31
SANTA FE       MOSUNNY   40  27  59 W6        30.09F
TAOS           SUNNY     36  19  51 CALM      30.09F
ANGEL FIRE     FAIR      33   9  36 SW17        N/A  WCI  22

$$
NMZ402-403-502-505>509-012200-
WESTCENTRAL MOUNTAINS/SOUTHWEST MOUNTAINS

CITY           SKY/WX    TMP DP  RH WIND       PRES   REMARKS
GALLUP         SUNNY     43  11  27 CALM      30.15F
GRANTS         SUNNY     47  15  27 NW15G23   30.14S
SILVER CITY    SUNNY     54  39  58 S6        30.11F

$$
NMZ407-409-411-412-012200-
SOUTHERN DESERTS

CITY           SKY/WX    TMP DP  RH WIND       PRES   REMARKS
LORDSBURG      FAIR      54  41  62 NW3       30.10S
DEMING         SUNNY     56  44  64 W7        30.08F
LAS CRUCES     SUNNY     56  36  46 CALM      30.08F
HOLLOMAN AFB   SUNNY     57  38  49 SW5       30.05F
ALAMOGORDO     SUNNY     57  37  47 W5        30.06F
T OR C         SUNNY     54  35  48 VRB3      30.07F

$$
NMZ519>523-012200-
CENTRAL VALLEYS/CENTRAL HIGHLANDS

CITY           SKY/WX    TMP DP  RH WIND       PRES   REMARKS
ALBUQUERQUE    MOSUNNY   49  29  46 NW10      30.11F
DOUBLE EAGLE   MOSUNNY   45  30  57 SW7       30.12F
MORIARTY ARPT  CLOUDY    44  31  60 CALM      30.10F
CLINES CORNERS CLOUDY    41  29  62 W10       30.07F
BELEN          FAIR      50  30  45 NW5       30.10F
SOCORRO        FAIR      53  34  49 N9        30.09F

$$
NMZ524>526-539-540-012200-
SOUTHCENTRAL MOUNTAINS

CITY           SKY/WX    TMP DP  RH WIND       PRES   REMARKS
RUIDOSO        CLOUDY    37  32  81 SE9       30.12F WCI  31

$$
NMZ527>531-012200-
NORTHEAST HIGHLANDS/NORTHEAST PLAINS

CITY           SKY/WX    TMP DP  RH WIND       PRES   REMARKS
LAS VEGAS      CLOUDY    31  29  92 S21       30.06F WCI  18
RATON          SUNNY     38  25  59 NW3       30.03F
CLAYTON        SUNNY     37  20  50 N17       30.10F WCI  27

$$
NMZ532>537-012200-
EASTCENTRAL PLAINS

CITY           SKY/WX    TMP DP  RH WIND       PRES   REMARKS
TUCUMCARI      PTSUNNY   45  27  49 E9        30.11F
CANNON AFB     NOT AVBL
CLOVIS AIRPORT SUNNY     45  28  53 N14G22    30.13R

$$
NMZ028-029-538-012200-
SOUTHEAST PLAINS

CITY           SKY/WX    TMP DP  RH WIND       PRES   REMARKS
ROSWELL        CLOUDY    50  34  54 VRB5      30.12F
ARTESIA        CLOUDY    50  37  62 VRB5      30.14F
CARLSBAD       CLOUDY    51  37  58 N6        30.13S


$$


USA.gov is the U.S. government's official web portal to all federal, state and local government web resources and services.